Provo, UT

9:05 PM MDT on October 18, 2019 (GMT -0600)
Provo Municipal

Weather History for KPVU - September, 2019

Change the Weather History Date:

Tuesday, September 17, 2019

  Actual Average Record
Temperature  
Mean Temperature 63 °F -  
Max Temperature 73 °F 73 °F 89 °F (2014)
Min Temperature 53 °F 46 °F 33 °F (2006)
Degree Days  
Heating Degree Days 2    
Growing Degree Days 13 (Base 50)    
Moisture  
Dew Point 43 °F    
Average Humidity 49    
Maximum Humidity 77    
Minimum Humidity 31    
Precipitation  
Precipitation 0.00 in - - ()
Sea Level Pressure  
Sea Level Pressure 29.90 in    
Wind  
Wind Speed 11 mph (WNW)    
Max Wind Speed 21 mph    
Max Gust Speed 28 mph    
Visibility 10 miles    
Events Rain , Thunderstorm    
Averages and records for this station are not official NWS values.
T = Trace of Precipitation, MM = Missing Value Source: NWS Daily Summary

Daily Weather History Graph

Daily Weather History Graph

Search for Another Location

Airport or City:

Astronomy

Sep. 17, 2019 Rise Set
Actual Time 7:09 AM MDT 7:32 PM MDT
Civil Twilight 6:42 AM MDT 7:59 PM MDT
Nautical Twilight 6:10 AM MDT 8:31 PM MDT
Astronomical Twilight 5:37 AM MDT 9:04 PM MDT
Moon 9:37 PM MDT (9/17) 10:17 AM MDT (9/17)
Length of Visible Light 13h 17m
Length of Day
12h 23m
Waning Gibbous, 89% of the Moon is Illuminated
Sep 17
Waning Gibbous
Sep 21
Last Quarter
Sep 28
New
Oct 5
First Quarter
Oct 13
Full

Hourly Weather History & Observations

Time (MDT) Temp. Dew Point Humidity Pressure Visibility Wind Dir Wind Speed Gust Speed Precip Events Conditions
12:56 AM 71.1 °F 39.0 °F 31% 29.67 in 10.0 mi ESE 6.9 mph - N/A   Overcast
1:56 AM 73.9 °F 42.1 °F 32% 29.66 in 10.0 mi SW 15.0 mph 27.6 mph N/A   Mostly Cloudy
2:56 AM 70.0 °F 45.0 °F 41% 29.67 in 10.0 mi SW 8.1 mph - 0.00 in   Overcast
3:40 AM 69.8 °F 46.4 °F 43% 29.86 in 10.0 mi WSW 20.7 mph 25.3 mph N/A Thunderstorm Overcast
3:56 AM 69.1 °F 46.9 °F 45% 29.68 in 10.0 mi North - - N/A   Overcast
4:56 AM 62.1 °F 48.0 °F 60% 29.75 in 10.0 mi North 5.8 mph - 0.00 in   Overcast
5:17 AM 59.0 °F 51.8 °F 77% 29.91 in 10.0 mi West 3.5 mph - 0.00 in Rain , Thunderstorm Light Rain
5:38 AM 59.0 °F 46.4 °F 63% 29.91 in 10.0 mi NNW 18.4 mph - 0.00 in   Overcast
5:56 AM 59.0 °F 46.9 °F 64% 29.76 in 10.0 mi NW 15.0 mph - 0.00 in   Overcast
6:56 AM 59.0 °F 43.0 °F 55% 29.85 in 10.0 mi NW 17.3 mph - N/A   Mostly Cloudy
7:56 AM 57.9 °F 43.0 °F 58% 29.89 in 10.0 mi North 6.9 mph - 0.00 in Rain Light Rain
8:56 AM 57.9 °F 44.1 °F 60% 29.92 in 10.0 mi NW 20.7 mph - 0.00 in   Scattered Clouds
9:56 AM 59.0 °F 44.1 °F 58% 29.96 in 10.0 mi NW 16.1 mph - N/A   Scattered Clouds
10:56 AM 61.0 °F 43.0 °F 52% 29.97 in 10.0 mi NW 9.2 mph - N/A   Scattered Clouds
11:56 AM 63.0 °F 39.9 °F 43% 29.96 in 10.0 mi WNW 8.1 mph - N/A   Clear
12:42 PM 64.4 °F 39.2 °F 40% 30.10 in 10.0 mi Variable 5.8 mph - N/A   Partly Cloudy
12:56 PM 64.0 °F 39.9 °F 41% 29.96 in 10.0 mi West 8.1 mph - N/A   Clear
1:56 PM 64.9 °F 39.9 °F 40% 29.96 in 10.0 mi West 5.8 mph - N/A   Scattered Clouds
2:56 PM 66.9 °F 39.9 °F 37% 29.96 in 10.0 mi WNW 8.1 mph - N/A   Scattered Clouds
3:56 PM 68.0 °F 39.9 °F 36% 29.95 in 10.0 mi NW 9.2 mph - N/A   Mostly Cloudy
4:56 PM 68.0 °F 39.9 °F 36% 29.96 in 10.0 mi NW 13.8 mph - N/A   Clear
5:56 PM 66.9 °F 39.9 °F 37% 29.96 in 10.0 mi WNW 10.4 mph - N/A   Mostly Cloudy
6:56 PM 64.0 °F 42.1 °F 45% 29.96 in 10.0 mi NW 12.7 mph - N/A   Mostly Cloudy
7:56 PM 61.0 °F 43.0 °F 52% 29.96 in 10.0 mi NW 10.4 mph - N/A   Partly Cloudy
8:56 PM 60.1 °F 39.9 °F 47% 29.98 in 10.0 mi NNW 9.2 mph - N/A   Clear
9:56 PM 59.0 °F 41.0 °F 51% 29.98 in 10.0 mi North 8.1 mph - N/A   Clear
10:56 PM 53.1 °F 39.9 °F 61% 29.99 in 10.0 mi ESE 3.5 mph - N/A   Clear
11:56 PM 53.1 °F 39.0 °F 59% 29.97 in 10.0 mi SSW 8.1 mph - N/A   Clear